Location: Tuttlingen
(47.9853°N, 8.8165°E)
Time: 20:13:44
(UTC+01:00)

ISS - Pass Details

Date: 10 January 2018
Orbit: 402 x 407 km, 51.6° (Epoch: 20 January)

Event Time Altitude Azimuth Distance (km) Brightness Sun altitude
Exits shadow 06:31:32 42° 304° (NW) 597 -3.5 -16.2°
Maximum altitude 06:32:31 76° 20° (NNE) 424 -3.8 -16.1°
Drops below altitude 10° 06:35:48 10° 107° (ESE) 1,465 0.4 -15.5°
Sets 06:37:53 0° 109° (ESE) 2,324 1.9 -15.2°
